Theta_e
309 309 307 307 305 306 306 304 302 301 303 302 300 298 299 302 302 302 302 300 298 297 298 299 303 305 308 309 308 305 300 303 309 314 315 315 315 314 314 315 315 317 317 317 318 317 318
308 307 307 306 306 305 304 302 302 302 300 298 299 298 298 300 301 299 299 296 296 296 299 300 305 307 310 309 304 304 304 304 305 310 312 314 314 314 314 314 314 313 313 314 314 315 316
306 306 306 305 305 304 303 302 301 300 300 299 300 299 297 296 296 296 296 295 296 298 300 305 306 308 309 309 306 306 306 306 305 305 309 311 313 315 316 316 315 316 316 316 316 315 316
306 306 305 304 303 301 300 300 300 301 301 300 301 299 297 296 296 296 295 296 297 301 305 305 306 309 310 307 306 307 310 310 309 305 305 307 310 314 315 316 315 312 313 313 313 313 314
305 305 305 304 302 301 299 301 302 302 301 300 298 297 298 298 295 296 297 299 300 304 304 306 311 310 311 306 310 309 310 311 310 311 308 305 306 309 310 312 312 313 311 311 312 313 313
304 304 304 304 303 301 299 302 303 302 300 299 297 298 299 297 295 296 300 299 301 306 305 306 308 310 310 308 305 303 304 308 310 312 311 307 307 308 309 311 311 309 309 310 311 311 313
303 304 304 304 302 300 302 302 301 300 299 297 298 299 298 297 296 298 301 303 304 308 303 303 304 304 303 305 306 307 305 303 306 311 312 311 307 309 310 311 310 310 310 310 309 311 313
304 303 304 303 301 300 302 302 300 299 297 297 297 297 296 294 296 299 301 303 301 301 304 304 304 304 304 305 307 309 306 305 306 310 311 311 310 309 310 311 310 310 310 312 310 309 310
305 304 303 302 302 302 302 300 299 298 297 296 296 295 293 294 298 301 301 300 300 301 305 305 305 307 308 307 309 309 309 308 307 306 308 311 311 310 309 310 310 311 312 311 310 310 312
303 302 302 301 300 300 300 299 299 297 296 296 296 294 292 297 300 300 301 299 300 303 308 306 304 308 307 306 307 308 305 309 310 308 306 309 311 311 313 311 311 312 311 310 311 312 312
301 301 299 299 299 299 298 298 298 296 296 296 295 293 293 295 299 301 299 299 300 305 306 302 304 308 306 303 303 305 307 307 308 310 310 306 306 311 313 312 311 312 311 311 312 313 314
300 299 299 298 298 298 298 298 297 295 295 296 295 293 297 299 300 299 298 300 303 311 303 302 302 304 303 303 302 302 305 308 308 308 309 309 307 311 312 314 313 312 313 315 316 316 319
299 299 299 298 297 297 297 298 296 294 294 295 294 293 297 298 300 298 299 303 306 304 301 301 302 302 302 301 300 302 306 307 307 309 310 309 307 313 312 312 313 314 317 319 318 317 315
299 299 298 297 297 296 298 297 295 294 294 293 293 296 296 298 299 299 301 304 302 300 299 301 301 300 300 300 301 303 304 305 307 307 310 311 308 312 313 313 314 314 315 316 316 317 317
299 298 297 297 297 297 297 296 294 294 293 292 296 299 299 299 300 300 303 304 302 300 299 299 298 299 300 303 307 303 303 304 305 310 312 310 310 310 313 312 313 314 317 314 317 319 322
298 297 296 297 297 296 296 296 295 294 293 293 299 299 299 299 300 301 302 300 299 298 298 298 298 298 299 300 300 301 301 306 308 308 307 316 314 312 312 311 312 314 313 317 319 319 317
297 297 297 296 294 296 296 296 294 294 292 293 299 301 299 298 300 301 302 299 298 298 297 298 298 298 298 299 300 301 300 302 307 307 306 310 317 315 313 313 312 313 318 317 317 317 319
296 298 297 295 295 296 296 296 294 293 292 296 299 303 298 298 302 300 300 297 297 298 298 298 299 299 299 300 300 300 302 304 306 304 307 308 317 318 313 313 312 313 315 317 319 320 318
296 296 295 295 296 296 296 294 293 293 294 298 300 300 297 300 301 299 298 297 297 298 298 298 298 299 299 300 300 300 301 303 303 305 308 308 318 321 319 318 317 316 315 316 318 318 321
295 295 295 294 295 295 295 293 292 292 293 297 301 301 299 299 299 299 298 298 298 299 299 299 299 300 300 301 302 301 301 301 303 304 306 306 310 319 318 317 318 318 317 317 317 319 316
295 295 294 294 295 296 295 294 293 291 293 296 301 300 298 300 300 299 298 298 299 299 300 299 300 301 302 303 302 302 303 306 305 306 307 308 317 314 315 314 314 315 315 314 315 314 312
295 294 294 295 295 295 295 294 294 293 294 298 301 300 298 299 298 298 299 298 298 299 299 300 300 301 302 302 301 302 302 304 308 309 308 310 314 311 310 309 309 309 309 309 310 310 309
295 293 294 294 295 295 293 294 294 293 295 297 297 297 299 296 298 299 299 298 298 300 299 299 301 302 303 304 304 304 305 305 306 309 310 311 309 310 309 307 306 307 307 308 308 311 313
295 294 292 294 294 294 294 295 294 293 294 297 297 297 298 298 298 298 298 298 298 298 300 300 301 301 303 302 303 305 305 306 307 308 308 312 309 310 309 308 312 311 310 310 312 312 311
294 295 294 293 293 294 295 295 294 293 294 297 296 297 297 299 298 298 298 298 299 299 301 302 300 300 300 301 304 308 308 308 309 308 307 308 310 308 310 309 308 311 309 310 311 312 306
293 294 294 294 294 293 294 294 294 295 294 297 297 296 298 299 300 298 299 299 299 299 299 300 301 302 301 305 309 309 307 306 306 307 308 308 308 311 309 307 310 311 309 309 311 311 302
293 294 294 294 295 293 294 293 294 295 295 297 297 296 296 299 299 299 300 299 299 299 301 301 302 303 304 308 308 308 306 306 307 307 307 309 309 311 309 310 313 304 307 307 317 307 300
293 293 294 294 294 293 293 293 293 294 295 297 297 296 297 299 299 299 299 299 299 299 301 301 304 304 304 306 306 307 307 306 309 309 309 310 312 312 311 311 314 300 306 307 301 300 300
293 293 293 293 294 293 293 293 293 293 294 295 297 296 295 295 299 297 297 298 298 298 299 300 301 303 304 304 304 306 308 309 308 313 307 310 305 307 305 304 300 297 298 296 297 297 297
Wind_Speed
18 17 15 13 11 9 8 6 6 4 2 4 7 9 11 12 14 17 19 21 20 20 17 16 15 13 9 8 15 3 3 5 6 9 12 10 13 17 21 21 22 24 24 21 24 19 23
18 16 16 14 12 10 7 6 5 3 3 4 7 9 11 14 17 18 23 21 19 21 20 12 9 5 7 13 2 0 2 5 9 13 15 14 13 13 19 19 21 20 21 21 20 26 23
23 18 16 15 13 10 8 8 5 3 3 3 7 9 13 16 18 21 20 20 19 22 13 8 7 8 10 17 8 10 10 14 14 14 16 17 16 14 8 17 21 19 22 20 21 21 21
24 20 17 15 13 12 9 7 6 4 4 5 7 11 14 16 19 20 21 21 20 9 5 4 1 7 7 6 8 10 8 10 11 17 19 17 13 17 20 18 22 15 20 20 18 21 24
22 20 18 15 13 12 8 8 7 7 4 6 8 11 13 16 19 20 21 21 7 5 5 2 4 6 7 2 6 5 6 8 9 10 17 17 15 18 17 19 18 20 20 23 22 18 11
26 22 18 17 15 12 8 8 10 7 5 7 9 9 11 15 17 17 18 10 7 3 4 6 8 6 8 3 14 17 18 14 11 8 10 15 10 17 19 18 21 20 22 19 20 18 15
25 22 20 20 15 11 9 9 8 6 6 7 8 10 11 14 12 16 20 5 4 6 5 10 16 17 20 11 17 11 13 19 16 12 16 16 17 24 26 24 24 18 21 17 17 16 11
26 23 22 18 15 10 10 9 6 5 5 5 7 9 11 13 4 12 12 4 5 4 12 17 18 16 17 8 7 3 2 9 17 21 20 19 24 23 22 22 20 21 23 23 21 20 19
28 25 20 16 13 12 10 7 6 4 5 6 7 9 10 9 2 5 9 9 6 7 8 8 6 6 4 4 6 9 4 7 16 22 23 25 23 21 26 20 20 21 23 19 20 17 17
24 21 18 15 15 13 9 8 6 4 5 5 6 8 9 2 3 6 4 8 8 5 6 10 7 6 6 5 11 12 20 12 14 19 22 25 23 24 16 26 22 22 20 20 18 16 11
23 22 18 15 13 13 12 8 6 3 3 4 5 7 8 8 5 4 7 9 7 4 6 5 7 6 4 10 13 6 5 15 20 20 17 25 29 23 20 18 20 20 15 16 16 13 16
24 22 20 15 12 10 10 9 6 4 1 5 5 7 6 3 2 6 10 11 6 7 4 3 3 6 13 16 18 17 19 13 14 20 20 24 25 20 20 23 16 14 11 12 11 11 14
24 22 20 17 14 11 10 8 6 5 2 4 4 5 5 4 5 10 10 8 7 6 5 3 7 14 18 22 22 19 14 17 15 16 17 20 27 10 12 16 20 16 14 9 10 11 13
24 22 18 16 14 11 12 9 6 4 2 3 4 4 4 5 7 7 9 8 7 4 7 15 12 20 23 23 19 11 16 20 18 19 15 16 17 23 14 14 13 20 17 9 11 10 13
22 18 17 15 14 12 10 8 6 3 3 1 3 3 2 6 6 5 7 6 7 11 11 11 17 17 14 8 7 15 16 17 16 18 12 16 23 26 19 17 14 13 18 20 13 13 6
21 20 17 16 14 11 10 7 5 3 2 1 3 6 4 5 5 9 1 4 5 6 9 11 15 10 16 16 18 13 16 4 8 10 18 9 11 8 19 15 18 12 12 9 8 5 8
18 18 19 15 12 12 10 7 6 3 1 1 6 4 3 5 6 2 1 4 7 8 9 9 16 18 17 17 16 16 13 17 5 8 14 18 12 21 17 16 19 12 12 8 6 9 6
19 20 20 15 13 12 9 7 5 2 1 3 3 1 1 4 3 1 3 5 7 8 12 12 13 15 16 15 14 16 16 8 3 8 16 15 7 11 21 20 21 19 16 16 6 10 5
16 21 17 14 13 12 10 8 5 2 1 3 1 2 1 5 1 2 4 8 4 9 11 11 11 17 16 16 10 11 12 9 13 7 6 8 5 10 9 9 12 19 12 11 3 1 8
17 17 15 12 11 10 11 8 4 3 1 5 1 2 4 3 3 4 6 4 7 9 10 7 14 17 17 14 13 10 13 9 4 15 21 11 9 5 3 13 12 10 11 10 7 5 6
17 15 14 12 13 10 10 7 5 5 4 4 2 1 3 1 4 5 3 4 10 11 9 17 9 10 12 8 16 11 12 12 10 10 6 5 4 9 12 10 13 10 10 9 7 6 5
17 15 12 13 12 14 10 6 6 7 6 5 2 3 3 3 3 1 5 4 9 12 12 13 13 19 19 16 17 15 14 13 5 8 7 7 4 11 13 11 10 9 4 2 4 5 10
16 13 13 12 14 12 9 8 7 8 7 2 1 2 3 6 5 4 2 5 10 9 10 9 15 17 15 8 13 14 13 16 13 10 5 8 4 7 9 8 4 5 4 1 1 8 13
17 13 13 12 11 10 11 10 8 7 8 4 2 2 1 2 4 3 6 8 8 10 9 15 13 10 5 17 18 15 16 17 15 10 10 8 10 6 3 3 4 8 8 7 10 12 14
17 14 15 13 11 10 13 10 9 10 9 2 2 0 1 4 4 3 8 9 9 5 8 8 11 9 12 7 5 6 5 6 6 5 1 6 6 4 2 1 11 9 10 8 9 7 16
15 16 16 14 15 12 11 10 11 12 11 5 3 1 3 3 5 6 9 5 9 9 6 3 13 4 3 3 4 2 3 5 4 5 5 5 5 3 2 3 3 9 15 14 13 4 13
18 17 16 15 15 12 13 13 11 10 10 9 2 5 2 3 3 7 8 7 6 10 8 8 13 7 8 4 3 4 4 5 4 5 3 2 3 3 4 2 6 15 20 21 3 4 10
17 16 17 15 17 14 12 12 12 10 9 12 3 8 4 3 9 7 7 9 9 8 7 13 5 9 6 8 5 5 4 4 1 7 4 6 5 3 2 3 4 21 7 7 7 5 7
17 16 16 13 18 14 13 13 11 10 10 12 4 7 8 2 7 17 19 17 15 14 8 5 2 6 5 5 6 4 4 5 4 2 9 3 6 4 5 4 6 10 10 9 9 8 10
Wind_Direction
202 194 196 197 203 197 190 211 229 234 262 302 314 319 322 326 326 323 315 316 321 318 317 313 310 310 309 243 263 162 258 275 239 226 234 226 230 234 241 248 251 239 254 258 273 258 271
200 199 192 197 197 201 204 217 204 225 274 316 322 328 334 333 329 327 321 324 323 317 311 308 298 280 258 265 20 354 245 269 248 234 234 239 242 248 261 252 254 262 263 257 264 265 253
194 197 196 200 200 202 197 194 206 225 283 322 325 327 337 332 330 331 325 321 321 311 312 303 292 222 257 250 316 290 276 269 261 261 261 242 249 246 262 256 255 254 261 267 258 254 260
188 192 194 192 198 197 195 201 212 234 278 317 326 329 334 329 331 333 331 325 315 304 285 320 295 219 265 296 289 277 268 272 249 242 248 262 253 257 246 262 274 259 258 258 256 249 245
189 183 186 189 191 195 202 216 221 228 271 302 324 325 328 325 339 340 338 327 315 285 281 121 181 226 268 191 224 328 286 287 296 249 239 234 238 244 238 241 253 250 252 259 271 227 239
180 185 185 190 195 201 225 215 207 228 268 302 314 323 332 336 341 342 341 317 294 288 282 256 259 248 238 284 310 293 272 272 279 244 233 216 226 230 226 226 233 238 248 249 253 259 224
188 183 189 186 190 212 197 201 211 235 274 299 317 330 332 339 343 1 345 270 257 192 305 282 287 289 296 319 306 280 266 240 238 239 234 206 221 224 225 221 250 260 273 264 264 263 276
179 180 178 180 190 197 193 190 216 248 278 301 320 327 329 339 356 24 10 55 44 335 292 284 262 260 262 280 287 258 262 234 229 237 228 238 230 238 244 241 228 241 252 258 268 273 278
177 168 175 178 176 171 174 190 222 242 270 304 321 327 340 343 58 360 41 36 342 314 266 288 227 232 202 207 262 266 243 248 250 250 237 240 238 224 243 229 233 231 241 253 260 266 275
170 171 168 176 175 171 184 188 196 215 277 315 334 340 353 346 270 338 79 351 334 309 277 139 192 194 181 245 259 231 275 258 264 253 255 253 240 248 255 232 222 236 245 249 260 264 258
169 164 168 174 176 167 170 187 189 202 265 309 326 344 5 45 333 336 334 323 312 237 290 93 121 71 307 284 314 286 277 272 263 269 257 248 247 238 236 226 221 233 233 247 239 244 262
170 171 164 169 174 170 170 177 183 197 258 305 321 355 18 360 311 333 315 312 260 239 254 113 3 354 316 306 294 298 278 231 266 281 268 258 240 242 231 226 240 226 223 220 236 259 252
171 166 165 166 175 178 176 175 196 204 207 284 335 1 30 0 342 322 313 257 255 246 98 51 342 321 307 295 298 292 282 282 264 256 257 237 235 208 227 224 213 219 206 217 219 218 238
169 165 163 169 174 173 174 178 205 218 237 294 344 68 60 29 322 315 279 248 260 327 311 349 333 312 292 285 278 301 302 286 246 269 265 256 224 197 184 213 203 203 213 228 227 231 225
159 164 161 165 174 165 169 187 200 207 275 340 133 140 59 350 343 305 268 244 332 354 354 328 315 289 298 338 100 301 303 293 313 346 258 254 238 187 191 211 210 197 217 231 285 250 261
159 163 161 168 165 166 171 187 207 223 275 101 232 180 70 350 329 264 260 295 314 348 322 311 295 287 298 312 319 312 308 337 339 345 345 289 262 198 195 198 224 225 206 215 231 253 235
164 169 163 164 173 171 173 187 209 224 293 53 239 224 96 329 279 245 267 2 320 337 313 306 305 302 297 295 292 289 282 293 96 317 306 294 260 181 172 197 201 202 224 207 255 262 274
170 168 165 167 174 173 171 192 205 218 121 258 232 228 53 307 211 195 354 3 324 297 302 290 266 281 289 305 303 299 291 290 109 339 308 294 302 212 191 195 213 200 205 201 222 199 227
159 157 157 161 162 173 177 188 201 221 197 279 257 121 174 263 300 350 55 303 261 287 313 301 289 297 300 300 297 295 299 306 314 347 303 1 248 187 173 206 197 203 209 197 184 275 211
161 160 160 164 172 174 178 184 198 227 161 280 202 205 150 166 95 352 357 318 322 330 307 301 296 286 285 290 277 269 280 312 311 279 271 243 249 313 344 154 157 165 186 179 188 218 245
169 168 171 177 180 186 181 190 216 212 193 270 227 263 8 149 113 11 331 277 317 328 331 306 296 311 307 307 312 308 329 305 259 267 291 186 260 104 100 128 139 154 167 167 206 248 286
169 171 169 173 176 174 183 187 181 196 177 271 159 230 175 116 172 266 222 315 315 323 314 299 305 317 305 288 279 297 293 298 300 310 322 269 185 116 97 86 87 110 119 270 235 285 289
168 173 170 183 177 180 176 177 183 181 201 73 300 108 307 136 175 225 66 296 323 328 299 322 312 304 296 312 325 294 299 289 281 302 315 314 93 115 74 58 80 126 73 88 141 29 359
175 171 183 182 177 178 184 186 195 198 219 287 115 86 311 159 237 355 331 313 336 319 290 306 324 312 342 332 303 279 258 264 271 275 276 325 55 52 75 282 165 98 50 58 64 36 15
182 189 192 196 201 203 204 202 202 212 213 292 150 123 4 277 307 269 349 337 311 346 330 299 311 282 297 297 290 269 239 230 113 67 240 339 356 90 187 53 115 104 50 4 338 50 12
190 193 191 193 192 194 198 199 201 212 213 228 163 285 289 289 73 348 316 317 342 347 311 226 334 255 218 251 253 296 28 349 51 108 60 55 6 318 197 169 165 37 354 328 333 109 9
196 199 189 194 191 195 194 200 198 197 205 204 174 200 311 282 304 343 332 334 330 336 325 21 347 339 322 304 293 1 64 339 24 50 49 114 74 341 118 262 95 351 330 308 282 16 9
198 193 196 207 194 188 190 195 196 195 203 197 192 196 242 288 296 309 304 296 315 319 330 341 315 13 348 357 355 355 16 25 350 52 5 23 324 49 319 254 102 357 19 44 331 39 36
184 193 201 208 195 192 192 200 201 205 202 194 176 200 214 240 298 309 284 276 279 285 296 316 346 358 7 339 11 313 329 357 340 104 32 65 20 348 20 57 57 39 56 39 28 46 39